Weather in Yelan'

Russia / Volgograd Oblast     50°57′00″N   43°44′04″E
temp.,
°C
wind,
m/s
gust,
m/s
humid.,
%
clouds,
%
prec.,
mm/h
press.,
hPa
HPBL,
m
26 july, mon
mon2600:00+17e335314 0.0 102251
03:00+15ene225943 0.0 102311
06:00+18ne125737 0.0 102350
09:00+23ne22425 0.0 1024720
12:00+26nne22355 0.0 10232376
15:00+27n333336 0.0 10222421
18:00+26nne22380 0.0 1022872
21:00+20ene344812 0.0 102242
27 july, tue
tue2700:00+17e34500 0.0 102346
03:00+16ese11570 0.0 102310
06:00+18sse11560 0.0 102336
09:00+24sw11405 0.0 1023591
12:00+27nw243232 0.0 10212535
15:00+28nnw463254 0.0 10202748
18:00+27nnw234065 0.0 1019514
21:00+21nne225234 0.0 102013
28 july, wed
wed2800:00+19nne22571 0.0 102011
03:00+17nne22645 0.0 102011
06:00+19ne226196 0.0 102071
09:00+24ene114773 0.0 1019430
12:00+28w11359 0.0 10192155
15:00+28w223595 0.0 10172434
18:00+27e113915 0.0 1016410
21:00+24sse34432 0.1 101654
29 july, thu
thu2900:00+21s464499 0.0 101577
03:00+21ssw494773 0.0 1014160
06:00+21s4135265 0.0 1013284
09:00+22sw4750100 0.0 1013297
12:00+27w254454 0.1 1012602
15:00+29wsw71143100 0.6 10101336
18:00+27w356048 1.3 1010214
21:00+22wsw227553 1.6 101017
30 july, fri
fri3000:00+22sw337881 0.0 101043
03:00+20wsw22805 0.1 101011
06:00+22wsw23755 0.0 101089
09:00+28sw34481 0.0 1010559
12:00+32wsw46385 0.0 10092657
15:00+34w473030 0.0 10073006
18:00+31nw47438 0.1 1008296
21:00+25sw336298 1.2 100843